Location: Bonny Doon Airfield
(37.0704°N, 122.1252°W)
Time: 04:23:39
(UTC-07:00)

OTV 5 (USA 277) - Pass Details

Date: 10 October 2017
Orbit: 404 x 417 km, 43.0° (Epoch: 07 September)

Event Time Altitude Azimuth Distance (km) Brightness Sun altitude
Rises 19:47:37 0° 247° (WSW) 2,344 ? -14.7°
Reaches altitude 10° 19:49:44 10° 248° (WSW) 1,484 ? -15.1°
Maximum altitude 19:53:05 81° 334° (NNW) 424 ? -15.8°
Enters shadow 19:54:23 35° 60° (ENE) 695 ? -16.0°
